Location: Goettingen
(51.5300°N, 9.9433°E)
Time: 13:26:28
(UTC+01:00)

ISS - Pass Details

Date: 29 November 2023
Orbit: 416 x 417 km, 51.6° (Epoch: 02 December)

Event Time Altitude Azimuth Distance (km) Brightness Sun altitude
Rises 18:14:55 0° 281° (W) 2,362 1.3 -17.7°
Reaches altitude 10° 18:17:01 10° 279° (W) 1,497 0.1 -18.0°
Maximum altitude 18:20:21 69° 196° (SSW) 451 -3.6 -18.5°
Enters shadow 18:21:00 52° 136° (SE) 529 -3.5 -18.6°
